Weather History for Litchfield, MN

Change the Weather History Date:

Sunday, May 19, 2013

  Actual Average Record
Temperature  
Mean Temperature 71 °F -  
Max Temperature 80 °F 72 °F 90 °F (1972)
Min Temperature 62 °F 48 °F 32 °F (1971)
Cooling Degree Days 6    
Growing Degree Days 21 (Base 50)    
Moisture  
Dew Point 65 °F    
Average Humidity 91    
Maximum Humidity 100    
Minimum Humidity 69    
Precipitation  
Precipitation 0.00 in - - ()
Sea Level Pressure  
Sea Level Pressure 29.67 in    
Wind  
Wind Speed 7 mph (SE)    
Max Wind Speed 15 mph    
Max Gust Speed 22 mph    
Visibility 8 miles    
Events Rain , Thunderstorm    
Averages and records for this station are not official NWS values.
T = Trace of Precipitation, MM = Missing Value Source: NWS Daily Summary

Daily Weather History Graph

Daily Weather History Graph

Search for Another Location

Airport:

Trip Planner

Search our weather history database for the weather conditions in past years. The results will help you decide how hot, cold, wet, or windy it might be!

Date:

Astronomy

May. 19, 2013 Rise Set
Actual Time 5:44 AM CDT 8:45 PM CDT
Civil Twilight 5:09 AM CDT 9:20 PM CDT
Nautical Twilight 4:24 AM CDT 10:05 PM CDT
Astronomical Twilight 3:31 AM CDT 10:59 PM CDT
Moon 2:35 PM CDT (5/19) 2:24 AM CDT (5/19)
Length of Visible Light 16h 11m
Length of Day
15h 01m
Waxing Gibbous, 65% of the Moon is Illuminated
May 19
Waxing Gibbous
May 24
Full
May 31
Last Quarter
Jun 8
New
Jun 16
First Quarter

Hourly Weather History & Observations

Time (CDT) Temp. Heat Index Dew Point Humidity Pressure Visibility Wind Dir Wind Speed Gust Speed Precip Events Conditions
12:13 AM 68.0 °F - 64.4 °F 88% 29.76 in 10.0 mi ESE 8.1 mph - N/A   Clear
12:33 AM 66.2 °F - 64.4 °F 94% 29.76 in 10.0 mi SE 6.9 mph - N/A   Unknown
12:53 AM 66.2 °F - 64.4 °F 94% 29.76 in 10.0 mi ESE 8.1 mph - N/A   Unknown
1:12 AM 69.8 °F - 64.4 °F 83% 29.76 in 10.0 mi SE 8.1 mph - N/A   Clear
1:33 AM 69.8 °F - 64.4 °F 83% 29.76 in 10.0 mi SE 9.2 mph - N/A   Clear
1:53 AM 69.8 °F - 64.4 °F 83% 29.77 in 10.0 mi SE 6.9 mph - N/A   Clear
2:12 AM 68.0 °F - 64.4 °F 88% 29.77 in 10.0 mi SE 6.9 mph - N/A   Scattered Clouds
2:33 AM 68.0 °F - 64.4 °F 88% 29.77 in 10.0 mi SE 8.1 mph - N/A   Overcast
2:53 AM 68.0 °F - 64.4 °F 88% 29.77 in 10.0 mi SE 8.1 mph - N/A   Overcast
3:12 AM 68.0 °F - 64.4 °F 88% 29.77 in 10.0 mi SE 8.1 mph - N/A   Mostly Cloudy
3:33 AM 68.0 °F - 64.4 °F 88% 29.77 in 10.0 mi SE 6.9 mph - N/A   Mostly Cloudy
3:53 AM 68.0 °F - 64.4 °F 88% 29.75 in 10.0 mi SE 8.1 mph - N/A   Mostly Cloudy
4:12 AM 68.0 °F - 64.4 °F 88% 29.73 in 10.0 mi East 8.1 mph - N/A   Scattered Clouds
4:33 AM 66.2 °F - 64.4 °F 94% 29.72 in 10.0 mi ESE 10.4 mph - N/A Thunderstorm Scattered Clouds
4:53 AM 66.2 °F - 64.4 °F 94% 29.72 in 10.0 mi ESE 8.1 mph - N/A   Scattered Clouds
5:12 AM 66.2 °F - 64.4 °F 94% 29.72 in 10.0 mi ESE 4.6 mph - N/A   Mostly Cloudy
5:33 AM 66.2 °F - 64.4 °F 94% 29.75 in 4.0 mi SSE 9.2 mph - N/A Rain , Thunderstorm Thunderstorms and Rain
5:52 AM 64.4 °F - 64.4 °F 100% 29.74 in 1.8 mi SE 6.9 mph - N/A Rain , Thunderstorm Thunderstorms and Rain
6:13 AM 64.4 °F - 64.4 °F 100% 29.75 in 4.0 mi SE 8.1 mph - N/A Rain , Thunderstorm Thunderstorms and Rain
6:32 AM 62.6 °F - 62.6 °F 100% 29.73 in 4.0 mi ESE 15.0 mph - N/A Rain , Thunderstorm Rain
7:13 AM 64.4 °F - 64.4 °F 100% 29.65 in 7.0 mi NE 12.7 mph - N/A Rain Light Rain
7:32 AM 64.4 °F - 64.4 °F 100% 29.63 in 10.0 mi ENE 10.4 mph - N/A Rain Light Rain
7:53 AM 64.4 °F - 64.4 °F 100% 29.65 in 7.0 mi East 9.2 mph - N/A   Mostly Cloudy
8:13 AM 64.4 °F - 64.4 °F 100% 29.67 in 10.0 mi ESE 11.5 mph - N/A   Mostly Cloudy
8:32 AM 64.4 °F - 64.4 °F 100% 29.69 in 7.0 mi SE 11.5 mph - N/A   Overcast
8:53 AM 64.4 °F - 64.4 °F 100% 29.72 in 5.0 mi SE 12.7 mph 21.9 mph N/A   Overcast
9:13 AM 64.4 °F - 64.4 °F 100% 29.72 in 2.5 mi SE 11.5 mph 18.4 mph N/A Rain Rain
9:53 AM 66.2 °F - 66.2 °F 100% 29.69 in 5.0 mi ESE 13.8 mph 18.4 mph N/A   Light Drizzle
10:12 AM 66.2 °F - 66.2 °F 100% 29.69 in 5.0 mi ESE 13.8 mph 21.9 mph N/A   Overcast
10:33 AM 68.0 °F - 68.0 °F 100% 29.68 in 7.0 mi SE 11.5 mph 16.1 mph N/A   Overcast
10:52 AM 69.8 °F - 68.0 °F 94% 29.67 in 5.0 mi SE 9.2 mph 16.1 mph N/A   Overcast
11:13 AM 71.6 °F - 69.8 °F 94% 29.67 in 7.0 mi SE 9.2 mph - N/A   Overcast
11:33 AM 71.6 °F - 68.0 °F 88% 29.68 in 7.0 mi SSE 6.9 mph 18.4 mph N/A   Overcast
11:53 AM 73.4 °F - 68.0 °F 83% 29.69 in 7.0 mi SSE 8.1 mph 19.6 mph N/A   Mostly Cloudy
12:13 PM 73.4 °F - 69.8 °F 88% 29.69 in 10.0 mi SSE 12.7 mph 16.1 mph N/A   Mostly Cloudy
12:33 PM 75.2 °F - 69.8 °F 83% 29.68 in 10.0 mi SSE 9.2 mph 16.1 mph N/A   Mostly Cloudy
12:52 PM 77.0 °F - 69.8 °F 78% 29.67 in 10.0 mi SSE 9.2 mph - N/A   Scattered Clouds
1:13 PM 78.8 °F - 69.8 °F 74% 29.65 in 10.0 mi SSE 4.6 mph - N/A   Scattered Clouds
1:32 PM 80.6 °F 83.9 °F 69.8 °F 70% 29.64 in 10.0 mi SSE 5.8 mph - N/A   Scattered Clouds
2:13 PM 78.8 °F - 68.0 °F 69% 29.65 in 10.0 mi SSE 10.4 mph 16.1 mph N/A   Scattered Clouds
2:32 PM 75.2 °F - 66.2 °F 73% 29.65 in 10.0 mi SSE 11.5 mph 20.7 mph N/A   Scattered Clouds
3:13 PM 73.4 °F - 66.2 °F 78% 29.66 in 10.0 mi South 4.6 mph - N/A Rain Light Rain
3:32 PM 73.4 °F - 66.2 °F 78% 29.65 in 10.0 mi South 5.8 mph - N/A Rain Light Rain
3:53 PM 73.4 °F - 66.2 °F 78% 29.64 in 10.0 mi SW 4.6 mph - N/A   Scattered Clouds
4:13 PM 73.4 °F - 66.2 °F 78% 29.63 in 10.0 mi SW 3.5 mph - N/A   Clear
4:32 PM 73.4 °F - 66.2 °F 78% 29.63 in 10.0 mi Calm Calm - N/A   Scattered Clouds
4:53 PM 73.4 °F - 66.2 °F 78% 29.63 in 10.0 mi Calm Calm - N/A   Mostly Cloudy
5:13 PM 73.4 °F - 66.2 °F 78% 29.63 in 10.0 mi SSE 3.5 mph - N/A   Overcast
5:32 PM 71.6 °F - 68.0 °F 88% 29.63 in 4.0 mi SE 4.6 mph - N/A Rain Light Rain
5:53 PM 71.6 °F - 68.0 °F 88% 29.61 in 7.0 mi Calm Calm - N/A Rain Light Rain
6:13 PM 69.8 °F - 66.2 °F 88% 29.62 in 5.0 mi WSW 5.8 mph - N/A   Drizzle
6:33 PM 66.2 °F - 66.2 °F 100% 29.62 in - WSW 9.2 mph - N/A   Unknown
6:53 PM 64.4 °F - 64.4 °F 100% 29.63 in - Calm Calm - N/A   Unknown
7:13 PM 64.4 °F - 64.4 °F 100% 29.62 in 5.0 mi Calm Calm - N/A Rain Light Rain
7:32 PM 66.2 °F - 66.2 °F 100% 29.60 in 10.0 mi Calm Calm - N/A   Scattered Clouds
7:53 PM 66.2 °F - 64.4 °F 94% 29.61 in 10.0 mi West 3.5 mph - N/A   Clear
8:13 PM 64.4 °F - 64.4 °F 100% 29.60 in 10.0 mi Calm Calm - N/A   Unknown
8:32 PM 64.4 °F - 64.4 °F 100% 29.60 in 7.0 mi Calm Calm - N/A   Unknown
8:53 PM 64.4 °F - 64.4 °F 100% 29.60 in 7.0 mi SE 3.5 mph - N/A   Unknown
9:13 PM 64.4 °F - 64.4 °F 100% 29.61 in 7.0 mi Calm Calm - N/A   Clear
9:32 PM 62.6 °F - 62.6 °F 100% 29.60 in 7.0 mi ESE 3.5 mph - N/A   Clear
9:53 PM 62.6 °F - 62.6 °F 100% 29.59 in 7.0 mi East 3.5 mph - N/A   Clear
10:12 PM 62.6 °F - 62.6 °F 100% 29.60 in 7.0 mi ESE 4.6 mph - N/A   Clear
10:33 PM 62.6 °F - 62.6 °F 100% 29.58 in 5.0 mi Calm Calm - N/A   Clear
10:53 PM 62.6 °F - 62.6 °F 100% 29.57 in 4.0 mi Calm Calm - N/A   Clear
11:12 PM 62.6 °F - 62.6 °F 100% 29.57 in 5.0 mi Calm Calm - N/A   Clear
11:33 PM 62.6 °F - 62.6 °F 100% 29.57 in 5.0 mi Calm Calm - N/A   Clear
11:53 PM 62.6 °F - 62.6 °F 100% 29.58 in 4.0 mi Calm Calm - N/A   Clear